Date String (YYYY-MM-DD hh:mm:ss) UTC,Instrument flags,absolute air pressure of the measurement (hPa),sample flow rate (lpm),inlet stack bypass flow (lpm),air temperature of the measurement (°C),ambient temperature measured by the external sensor (°C),aerosol sample conditioner tube jacket temperature (°C),OPC LED temperature (°C),internal box temperature (°C),relative humidity of the measurement (%),span deviation,mass concentration of particles derived from Lorenz-Mie calculation of OPC scattering (μg/m³),mass concentration of particles derived from Lorenz-Mie calculation of OPC scattering (μg/m³),mass concentration of particles derived from Lorenz-Mie calculation of OPC scattering (μg/m³)
DateTimeUTC,F1_M11,P_M11,Q1_M11,Q2_M11,T1_M11,T2_M11,T3_M11,T4_M11,T5_M11,U1_M11,ZSPAN_M11,X0_M11,X2_M11,X1_M11
2023-09-22 06:00:00,SystemResetWarning,0829.3,5.00,000.00,028.1,026.2,000.0,036.6,029.7,22.6,0000.0,0009.89,0003.88,0003.15
2023-09-22 06:01:00,SystemResetWarning,0829.4,4.99,000.00,028.1,026.4,000.0,036.6,029.7,22.6,0000.0,0009.89,0003.90,0003.16
2023-09-22 06:02:00,SystemResetWarning,0829.4,5.00,000.00,028.1,026.5,000.0,036.6,029.8,22.6,0000.0,0010.32,0003.90,0003.16
2023-09-22 06:03:00,SystemResetWarning,0829.4,5.00,000.00,028.2,026.6,000.0,036.6,029.8,22.6,0000.0,0010.45,0003.90,0003.16
2023-09-22 06:04:00,SystemResetWarning,0829.4,5.00,000.00,028.2,026.7,000.0,036.6,029.8,22.5,0000.0,0010.38,0003.94,0003.16
2023-09-22 06:05:00,SystemResetWarning,0829.4,5.00,000.00,028.2,026.8,000.0,036.6,029.8,22.5,0000.0,0009.79,0003.96,0003.16
2023-09-22 06:06:00,SystemResetWarning,0829.4,5.00,000.00,028.2,026.8,000.0,036.6,029.9,22.5,0000.0,0009.50,0003.95,0003.15
2023-09-22 06:07:00,SystemResetWarning,0829.3,5.00,000.00,028.2,026.9,000.0,036.6,029.9,22.4,0000.0,0009.58,0003.93,0003.15
2023-09-22 06:08:00,SystemResetWarning,0829.3,5.00,000.00,028.2,026.9,000.0,036.6,029.9,22.4,0000.0,0009.56,0003.90,0003.15
2023-09-22 06:09:00,SystemResetWarning,0829.3,4.99,000.00,028.3,027.0,000.0,036.6,030.0,22.4,0000.0,0009.95,0003.90,0003.16
2023-09-22 06:10:00,SystemResetWarning,0829.4,5.00,000.00,028.3,027.0,000.0,036.6,030.0,22.4,0000.0,0010.11,0003.93,0003.15
2023-09-22 06:11:00,SystemResetWarning,0829.3,5.01,000.00,028.3,027.0,000.0,036.6,030.0,22.3,0000.0,0010.10,0003.92,0003.15
2023-09-22 06:12:00,SystemResetWarning,0829.3,5.01,000.00,028.3,027.0,000.0,036.6,030.0,22.3,0000.0,0010.67,0003.94,0003.15
2023-09-22 06:13:00,SystemResetWarning,0829.3,5.00,000.00,028.4,027.1,000.0,036.6,030.0,22.2,0000.0,0010.47,0003.98,0003.15
2023-09-22 06:14:00,SystemResetWarning,0829.4,4.99,000.00,028.4,027.1,000.0,036.7,030.1,22.2,0000.0,0011.00,0003.98,0003.16
2023-09-22 06:15:00,SystemResetWarning,0829.4,4.99,000.00,028.4,027.1,000.0,036.7,030.1,22.2,0000.0,0011.63,0003.96,0003.16
2023-09-22 06:16:00,SystemResetWarning,0829.4,5.01,000.00,028.4,027.1,000.0,036.7,030.1,22.1,0000.0,0011.83,0003.96,0003.15
2023-09-22 06:17:00,SystemResetWarning,0829.5,5.01,000.00,028.4,027.2,000.0,036.7,030.1,22.2,0000.0,0011.75,0003.95,0003.15
2023-09-22 06:18:00,SystemResetWarning,0829.4,5.00,000.00,028.5,027.2,000.0,036.7,030.2,22.2,0000.0,0012.22,0003.95,0003.15
2023-09-22 06:19:00,SystemResetWarning,0829.5,5.00,000.00,028.5,027.2,000.0,036.7,030.2,22.1,0000.0,0012.95,0003.99,0003.14
2023-09-22 06:20:00,SystemResetWarning,0829.5,4.99,000.00,028.5,027.2,000.0,036.7,030.2,22.1,0000.0,0013.00,0003.96,0003.13
2023-09-22 06:21:00,SystemResetWarning,0829.4,5.00,000.00,028.5,027.2,000.0,036.8,030.2,22.1,0000.0,0012.64,0003.92,0003.12
2023-09-22 06:22:00,SystemResetWarning,0829.5,5.00,000.00,028.5,027.3,000.0,036.8,030.2,22.1,0000.0,0012.57,0003.89,0003.12
2023-09-22 06:23:00,SystemResetWarning,0829.5,5.01,000.00,028.5,027.3,000.0,036.8,030.3,22.1,0000.0,0012.10,0003.89,0003.12
2023-09-22 06:24:00,SystemResetWarning,0829.5,5.01,000.00,028.6,027.3,000.0,036.8,030.3,22.1,0000.0,0012.21,0003.85,0003.12
2023-09-22 06:25:00,SystemResetWarning,0829.5,5.00,000.00,028.6,027.3,000.0,036.8,030.3,22.0,0000.0,0012.26,0003.84,0003.10
2023-09-22 06:26:00,SystemResetWarning,0829.5,4.99,000.00,028.6,027.3,000.0,036.8,030.3,22.1,0000.0,0012.65,0003.85,0003.08
2023-09-22 06:27:00,SystemResetWarning,0829.5,4.99,000.00,028.6,027.4,000.0,036.8,030.4,22.1,0000.0,0012.39,0003.85,0003.09
2023-09-22 06:28:00,SystemResetWarning,0829.5,4.99,000.00,028.6,027.4,000.0,036.9,030.4,22.2,0000.0,0012.41,0003.85,0003.09
2023-09-22 06:29:00,SystemResetWarning,0829.5,5.00,000.00,028.7,027.4,000.0,036.9,030.4,22.2,0000.0,0011.83,0003.87,0003.09
2023-09-22 06:30:00,SystemResetWarning,0829.5,4.99,000.00,028.7,027.4,000.0,036.9,030.4,22.4,0000.0,0011.28,0003.89,0003.09
2023-09-22 06:31:00,SystemResetWarning,0829.4,5.00,000.00,028.7,027.4,000.0,036.9,030.4,22.5,0000.0,0010.74,0003.90,0003.09
2023-09-22 06:32:00,SystemResetWarning,0829.4,5.00,000.00,028.7,027.4,000.0,036.9,030.5,22.6,0000.0,0010.94,0003.94,0003.10
2023-09-22 06:33:00,SystemResetWarning,0829.4,5.01,000.00,028.7,027.5,000.0,036.9,030.5,22.5,0000.0,0011.09,0003.98,0003.10
2023-09-22 06:34:00,SystemResetWarning,0829.4,5.01,000.00,028.7,027.5,000.0,037.0,030.5,22.4,0000.0,0010.76,0003.96,0003.09
2023-09-22 06:35:00,SystemResetWarning,0829.4,5.00,000.00,028.8,027.5,000.0,037.0,030.5,22.2,0000.0,0010.58,0003.96,0003.08
2023-09-22 06:36:00,SystemResetWarning,0829.3,4.99,000.00,028.8,027.5,000.0,037.0,030.5,22.1,0000.0,0010.06,0003.93,0003.08
2023-09-22 06:37:00,SystemResetWarning,0829.3,5.00,000.00,028.8,027.5,000.0,037.0,030.5,22.0,0000.0,0008.66,0003.90,0003.07
2023-09-22 06:38:00,SystemResetWarning,0829.3,5.00,000.00,028.8,027.5,000.0,037.0,030.5,22.0,0000.0,0009.03,0003.87,0003.05
2023-09-22 06:39:00,SystemResetWarning,0829.3,5.00,000.00,028.8,027.5,000.0,037.0,030.5,22.0,0000.0,0009.63,0003.87,0003.03
2023-09-22 06:40:00,SystemResetWarning,0829.3,5.00,000.00,028.8,027.5,000.0,037.1,030.6,21.9,0000.0,0009.68,0003.86,0003.01
2023-09-22 06:41:00,SystemResetWarning,0829.4,5.01,000.00,028.8,027.5,000.0,037.1,030.6,21.9,0000.0,0009.72,0003.80,0002.99
2023-09-22 06:42:00,SystemResetWarning,0829.4,5.00,000.00,028.9,027.5,000.0,037.1,030.6,21.9,0000.0,0010.52,0003.80,0002.99
2023-09-22 06:43:00,SystemResetWarning,0829.3,5.00,000.00,028.9,027.5,000.0,037.1,030.6,21.9,0000.0,0010.75,0003.81,0002.96
2023-09-22 06:44:00,SystemResetWarning,0829.4,4.99,000.00,028.9,027.6,000.0,037.1,030.6,21.8,0000.0,0010.65,0003.81,0002.96
2023-09-22 06:45:00,SystemResetWarning,0829.3,5.00,000.00,028.9,027.6,000.0,037.1,030.6,21.7,0000.0,0010.70,0003.82,0002.96
2023-09-22 06:46:00,SystemResetWarning,0829.3,4.98,000.00,028.9,026.6,000.0,037.1,030.3,21.7,0000.0,0010.82,0003.81,0002.97
2023-09-22 06:47:00,SystemResetWarning,0829.4,5.00,000.00,028.7,024.8,000.0,037.1,029.8,21.9,0000.0,0011.35,0003.85,0002.99
2023-09-22 06:48:00,SystemResetWarning,0829.3,5.01,000.00,028.6,024.3,000.0,037.0,029.7,22.0,0000.0,0011.38,0003.88,0003.02
2023-09-22 06:49:00,SystemResetWarning,0829.4,5.01,000.00,028.5,024.4,000.0,037.0,029.6,22.1,0000.0,0010.96,0003.91,0003.04
2023-09-22 06:50:00,SystemResetWarning,0829.4,4.99,000.00,028.4,024.8,000.0,036.9,029.6,22.0,0000.0,0010.43,0003.90,0003.06
2023-09-22 06:51:00,SystemResetWarning,0829.3,4.99,000.00,028.3,025.1,000.0,036.9,029.6,22.1,0000.0,0010.40,0003.91,0003.07
2023-09-22 06:52:00,SystemResetWarning,0829.3,5.00,000.00,028.3,025.4,000.0,036.9,029.7,22.1,0000.0,0010.20,0003.91,0003.09
2023-09-22 06:53:00,SystemResetWarning,0829.3,5.00,000.00,028.3,025.7,000.0,036.8,029.7,22.1,0000.0,0009.29,0003.89,0003.09
2023-09-22 06:54:00,SystemResetWarning,0829.3,5.01,000.00,028.3,026.0,000.0,036.8,029.7,22.2,0000.0,0009.10,0003.86,0003.11
2023-09-22 06:55:00,SystemResetWarning,0829.3,5.01,000.00,028.3,026.2,000.0,036.8,029.8,22.7,0000.0,0009.01,0003.84,0003.11
2023-09-22 06:56:00,SystemResetWarning,0829.3,5.00,000.00,028.3,026.3,000.0,036.8,029.9,22.6,0000.0,0009.19,0003.87,0003.12
2023-09-22 06:57:00,SystemResetWarning,0829.3,5.01,000.00,028.3,026.5,000.0,036.7,029.9,22.9,0000.0,0009.23,0003.85,0003.11
2023-09-22 06:58:00,SystemResetWarning,0829.4,5.00,000.00,028.3,026.6,000.0,036.7,029.9,23.1,0000.0,0009.47,0003.86,0003.11
2023-09-22 06:59:00,SystemResetWarning,0829.3,5.00,000.00,028.3,026.7,000.0,036.7,029.9,22.9,0000.0,0009.65,0003.83,0003.12
